Simultaneous Nadir Overpasses (SNOs) Predictions

Prediction of SNOs between FY3D and TERRA Satellite Orbit:

Table of predicted SNOs for the next 14.0 days since TLE Epoch: 1/24/2025
Index Date (FY3D) Time (FY3D) Lat,Lon (FY3D) SZA (FY3D ) Date (TERRA) Time (TERRA) Lat,Lon (TERRA) SZA (TERRA ) Distance(km) Time Diff (sec)
1 01/26/2025 20:14:18 76.98,-123.35 95.41 01/26/2025 20:15:09 76.98,-123.38 95.40 0.68 51
2 01/26/2025 21:05:02 -76.95, 44.06 84.63 01/26/2025 21:04:31 -76.95, 44.20 84.63 3.51 31
3 01/29/2025 07:26:42 76.97, 68.63 94.75 01/29/2025 07:26:55 76.97, 68.61 94.75 0.43 13
4 01/29/2025 08:17:26 -76.94,-123.94 85.29 01/29/2025 08:16:17 -76.95,-123.80 85.29 3.60 69
5 01/31/2025 17:48:22 -77.02, 93.04 85.87 01/31/2025 17:49:21 -77.01, 93.12 85.89 2.31 59
6 01/31/2025 18:39:06 76.98, -99.44 94.07 01/31/2025 18:38:40 76.97, -99.38 94.06 1.93 26
7 02/03/2025 05:00:45 -77.00, -74.87 86.61 02/03/2025 05:01:05 -77.02, -74.84 86.60 2.55 20
8 02/03/2025 05:51:29 76.95, 92.63 93.33 02/03/2025 05:50:24 76.97, 92.65 93.35 1.78 65
9 02/05/2025 15:22:24 77.02, -50.32 92.68 02/05/2025 15:23:26 77.04, -50.39 92.70 3.24 62
10 02/05/2025 16:13:08 -76.98, 117.16 87.38 02/05/2025 16:12:49 -76.98, 117.04 87.38 3.12 19



Historial Predications of SNOs between FY3D and TERRA
